| time (UTC) | temp C | wind direction | speed KPH | gust KPH | rain 1hr cm | rain 24hr cm | rain mn cm | humidity % | barometer mb |
| 20260504000129 | 13 | 355 | 0.0 | 0.0 | 0.00 | 0.00 | 0.00 | 41 | 1015.9 |
| 20260503235623 | 14 | 355 | 0.0 | 0.0 | 0.00 | 0.00 | 0.00 | 41 | 1015.9 |
| 20260503235347 | 14 | 355 | 0.0 | 0.0 | 0.00 | 0.00 | 0.00 | 40 | 1015.8 |
| 20260503234611 | 14 | 355 | 0.0 | 0.0 | 0.00 | 0.00 | 0.00 | 40 | 1015.8 |
| 20260503234105 | 14 | 355 | 0.0 | 0.0 | 0.00 | 0.00 | 0.00 | 40 | 1015.8 |
| 20260503233559 | 14 | 355 | 0.0 | 0.0 | 0.00 | 0.00 | 0.00 | 39 | 1015.7 |
| 20260503233053 | 15 | 355 | 0.0 | 0.0 | 0.00 | 0.00 | 0.00 | 39 | 1015.7 |
| 20260503232600 | 15 | 355 | 0.0 | 0.0 | 0.00 | 0.00 | 0.00 | 39 | 1015.7 |
| 20260503232041 | 15 | 351 | 0.0 | 0.0 | 0.00 | 0.00 | 0.00 | 38 | 1015.7 |
| 20260503231535 | 15 | 351 | 0.0 | 0.0 | 0.00 | 0.00 | 0.00 | 38 | 1015.6 |
| 20260503231029 | 15 | 351 | 1.6 | 4.8 | 0.00 | 0.00 | 0.00 | 37 | 1015.6 |
| 20260503230522 | 15 | 355 | 1.6 | 6.4 | 0.00 | 0.00 | 0.00 | 36 | 1015.6 |
| 20260503230017 | 15 | 342 | 1.6 | 4.8 | 0.00 | 0.00 | 0.00 | 38 | 1015.6 |
| 20260503225510 | 15 | 351 | 1.6 | 12.9 | 0.00 | 0.00 | 0.00 | 35 | 1015.7 |
| 20260503225237 | 15 | 5 | 1.6 | 12.9 | 0.00 | 0.00 | 0.00 | 35 | 1015.7 |
| 20260503224730 | 15 | 340 | 1.6 | 6.4 | 0.00 | 0.00 | 0.00 | 36 | 1015.7 |
| 20260503223953 | 15 | 304 | 1.6 | 6.4 | 0.00 | 0.00 | 0.00 | 35 | 1015.6 |
| 20260503223447 | 15 | 149 | 0.0 | 4.8 | 0.00 | 0.00 | 0.00 | 35 | 1015.5 |
| 20260503222941 | 15 | 333 | 0.0 | 4.8 | 0.00 | 0.00 | 0.00 | 36 | 1015.6 |
| 20260503222435 | 15 | 44 | 1.6 | 6.4 | 0.00 | 0.00 | 0.00 | 35 | 1015.6 |
| 20260503221929 | 15 | 300 | 3.2 | 9.7 | 0.00 | 0.00 | 0.00 | 36 | 1015.6 |
| 20260503221423 | 16 | 325 | 3.2 | 9.7 | 0.00 | 0.00 | 0.00 | 35 | 1015.5 |
| 20260503220917 | 15 | 355 | 1.6 | 6.4 | 0.00 | 0.00 | 0.00 | 34 | 1015.5 |
| 20260503220411 | 15 | 265 | 1.6 | 6.4 | 0.00 | 0.00 | 0.00 | 32 | 1015.5 |
| 20260503215905 | 16 | 355 | 1.6 | 8.0 | 0.00 | 0.00 | 0.00 | 33 | 1015.4 |
| 20260503215629 | 16 | 346 | 3.2 | 9.7 | 0.00 | 0.00 | 0.00 | 35 | 1015.5 |
| 20260503215126 | 16 | 107 | 3.2 | 9.7 | 0.00 | 0.00 | 0.00 | 34 | 1015.6 |
| 20260503214346 | 16 | 309 | 3.2 | 11.3 | 0.00 | 0.00 | 0.00 | 34 | 1015.6 |
| 20260503213843 | 16 | 329 | 1.6 | 11.3 | 0.00 | 0.00 | 0.00 | 33 | 1015.5 |
| 20260503213342 | 16 | 338 | 1.6 | 8.0 | 0.00 | 0.00 | 0.00 | 34 | 1015.6 |
| 20260503212843 | 16 | 355 | 1.6 | 12.9 | 0.00 | 0.00 | 0.00 | 34 | 1015.6 |
| 20260503212353 | 16 | 342 | 3.2 | 14.5 | 0.00 | 0.00 | 0.00 | 33 | 1015.6 |
| 20260503211842 | 16 | 344 | 1.6 | 14.5 | 0.00 | 0.00 | 0.00 | 35 | 1015.5 |
| 20260503211341 | 16 | 296 | 1.6 | 11.3 | 0.00 | 0.00 | 0.00 | 33 | 1015.5 |
| 20260503211109 | 16 | 318 | 1.6 | 11.3 | 0.00 | 0.00 | 0.00 | 34 | 1015.6 |
| 20260503210338 | 16 | 209 | 1.6 | 8.0 | 0.00 | 0.00 | 0.00 | 33 | 1015.5 |
| 20260503210109 | 16 | 204 | 0.0 | 8.0 | 0.00 | 0.00 | 0.00 | 32 | 1015.4 |
| 20260503205336 | 16 | 315 | 3.2 | 17.7 | 0.00 | 0.00 | 0.00 | 35 | 1015.5 |
| 20260503204835 | 16 | 309 | 6.4 | 17.7 | 0.00 | 0.00 | 0.00 | 33 | 1015.5 |
| 20260503204335 | 16 | 50 | 6.4 | 20.9 | 0.00 | 0.00 | 0.00 | 34 | 1015.5 |
| 20260503203834 | 16 | 355 | 6.4 | 20.9 | 0.00 | 0.00 | 0.00 | 33 | 1015.5 |
| 20260503203606 | 16 | 331 | 6.4 | 17.7 | 0.00 | 0.00 | 0.00 | 37 | 1015.5 |
| 20260503202835 | 16 | 71 | 4.8 | 17.7 | 0.00 | 0.00 | 0.00 | 34 | 1015.5 |
| 20260503202335 | 16 | 5 | 1.6 | 8.0 | 0.00 | 0.00 | 0.00 | 34 | 1015.5 |
| 20260503201835 | 16 | 143 | 1.6 | 8.0 | 0.00 | 0.00 | 0.00 | 36 | 1015.6 |
| 20260503201329 | 16 | 257 | 1.6 | 8.0 | 0.00 | 0.00 | 0.00 | 34 | 1015.6 |
| 20260503200823 | 16 | 19 | 3.2 | 8.0 | 0.00 | 0.00 | 0.00 | 37 | 1015.6 |
| 20260503200317 | 16 | 307 | 3.2 | 11.3 | 0.00 | 0.00 | 0.00 | 34 | 1015.7 |
| 20260503195811 | 16 | 245 | 3.2 | 14.5 | 0.00 | 0.00 | 0.00 | 34 | 1015.8 |
| 20260503195305 | 16 | 315 | 3.2 | 14.5 | 0.00 | 0.00 | 0.00 | 37 | 1015.7 |
| 20260503194759 | 15 | 355 | 4.8 | 14.5 | 0.00 | 0.00 | 0.00 | 34 | 1015.8 |
| 20260503194253 | 16 | 329 | 4.8 | 17.7 | 0.00 | 0.00 | 0.00 | 39 | 1015.9 |
| 20260503193746 | 16 | 5 | 3.2 | 17.7 | 0.00 | 0.00 | 0.00 | 36 | 1015.9 |
| 20260503193241 | 16 | 11 | 3.2 | 14.5 | 0.00 | 0.00 | 0.00 | 36 | 1016.0 |
| 20260503192735 | 16 | 292 | 3.2 | 17.7 | 0.00 | 0.00 | 0.00 | 35 | 1016.1 |
| 20260503192228 | 16 | 43 | 3.2 | 17.7 | 0.00 | 0.00 | 0.00 | 40 | 1016.1 |
| 20260503191722 | 15 | 345 | 4.8 | 17.7 | 0.00 | 0.00 | 0.00 | 37 | 1016.3 |
| 20260503191447 | 15 | 44 | 4.8 | 17.7 | 0.00 | 0.00 | 0.00 | 37 | 1016.4 |
| 20260503190711 | 15 | 42 | 3.2 | 12.9 | 0.00 | 0.00 | 0.00 | 36 | 1016.4 |
| 20260503190205 | 16 | 333 | 3.2 | 12.9 | 0.00 | 0.00 | 0.00 | 36 | 1016.5 |
| 20260503185659 | 16 | 260 | 6.4 | 16.1 | 0.00 | 0.00 | 0.00 | 36 | 1016.5 |
| 20260503185153 | 16 | 342 | 6.4 | 16.1 | 0.00 | 0.00 | 0.00 | 37 | 1016.6 |
| 20260503184647 | 16 | 311 | 4.8 | 12.9 | 0.00 | 0.00 | 0.00 | 36 | 1016.5 |
| 20260503184141 | 16 | 25 | 4.8 | 12.9 | 0.00 | 0.00 | 0.00 | 39 | 1016.5 |
| 20260503183906 | 16 | 355 | 4.8 | 12.9 | 0.00 | 0.00 | 0.00 | 37 | 1016.5 |
| 20260503183141 | 16 | 338 | 4.8 | 12.9 | 0.00 | 0.00 | 0.00 | 36 | 1016.6 |
| 20260503182623 | 16 | 333 | 4.8 | 14.5 | 0.00 | 0.00 | 0.00 | 39 | 1016.6 |
| 20260503182348 | 16 | 46 | 4.8 | 14.5 | 0.00 | 0.00 | 0.00 | 38 | 1016.7 |
| 20260503181611 | 15 | 267 | 4.8 | 16.1 | 0.00 | 0.00 | 0.00 | 37 | 1016.7 |
| 20260503181108 | 16 | 77 | 6.4 | 17.7 | 0.00 | 0.00 | 0.00 | 36 | 1016.7 |
| 20260503181102 | 16 | 11 | 4.8 | 17.7 | 0.00 | 0.00 | 0.00 | 39 | 1016.7 |
| 20260503180105 | 16 | 290 | 4.8 | 19.3 | 0.00 | 0.00 | 0.00 | 35 | 1016.7 |
| 20260503175547 | 15 | 231 | 4.8 | 19.3 | 0.00 | 0.03 | 0.00 | 38 | 1016.7 |
| 20260503175041 | 16 | 301 | 4.8 | 17.7 | 0.00 | 0.03 | 0.00 | 37 | 1016.7 |
| 20260503174535 | 15 | 300 | 6.4 | 17.7 | 0.00 | 0.03 | 0.00 | 38 | 1016.7 |
| 20260503174029 | 15 | 0 | 6.4 | 17.7 | 0.00 | 0.03 | 0.00 | 42 | 1016.9 |
| 20260503173523 | 16 | 281 | 3.2 | 17.7 | 0.00 | 0.03 | 0.00 | 36 | 1016.9 |
| 20260503173017 | 15 | 53 | 3.2 | 12.9 | 0.00 | 0.03 | 0.00 | 39 | 1017.0 |
| 20260503172742 | 15 | 14 | 3.2 | 8.0 | 0.00 | 0.03 | 0.00 | 37 | 1017.0 |
| 20260503172005 | 15 | 45 | 6.4 | 24.1 | 0.00 | 0.03 | 0.00 | 40 | 1017.0 |
| 20260503171458 | 15 | 294 | 8.0 | 24.1 | 0.00 | 0.03 | 0.00 | 41 | 1017.1 |
| 20260503170953 | 15 | 32 | 9.7 | 25.7 | 0.00 | 0.03 | 0.00 | 39 | 1017.1 |
| 20260503170447 | 15 | 0 | 8.0 | 25.7 | 0.00 | 0.03 | 0.00 | 39 | 1017.0 |
| 20260503150729 | 14 | 207 | 6.4 | 20.9 | 0.00 | 0.10 | 0.00 | 44 | 1017.4 |
| 20260503150223 | 14 | 44 | 6.4 | 20.9 | 0.00 | 0.10 | 0.00 | 40 | 1017.4 |
| 20260503140111 | 13 | 55 | 6.4 | 19.3 | 0.00 | 0.10 | 0.00 | 47 | 1017.3 |
| 20260503131011 | 12 | 349 | 8.0 | 25.7 | 0.00 | 0.10 | 0.00 | 46 | 1017.1 |
| 20260503130505 | 11 | 334 | 6.4 | 17.7 | 0.00 | 0.10 | 0.00 | 49 | 1017.1 |
| 20260503130230 | 12 | 326 | 8.0 | 20.9 | 0.00 | 0.10 | 0.00 | 48 | 1017.0 |
| 20260503110747 | 10 | 339 | 6.4 | 17.7 | 0.00 | 0.10 | 0.00 | 51 | 1015.8 |
| 20260503110241 | 10 | 5 | 8.0 | 17.7 | 0.00 | 0.10 | 0.00 | 52 | 1015.7 |
| 20260503100128 | 11 | 338 | 4.8 | 14.5 | 0.00 | 0.10 | 0.00 | 57 | 1014.4 |
| 20260503081423 | 9 | 317 | 1.6 | 6.4 | 0.00 | 0.10 | 0.00 | 68 | 1013.1 |
| 20260503080917 | 9 | 20 | 1.6 | 11.3 | 0.00 | 0.10 | 0.00 | 69 | 1012.9 |
| 20260503080410 | 9 | 338 | 1.6 | 11.3 | 0.00 | 0.10 | 0.00 | 70 | 1012.7 |
| 20260503072829 | 8 | 5 | 0.0 | 0.0 | 0.00 | 0.10 | 0.00 | 69 | 1012.5 |
| 20260503072323 | 8 | 5 | 0.0 | 0.0 | 0.00 | 0.10 | 0.00 | 68 | 1012.6 |
| 20260503071817 | 8 | 5 | 0.0 | 0.0 | 0.00 | 0.10 | 0.00 | 68 | 1012.5 |
| 20260503071311 | 8 | 5 | 0.0 | 0.0 | 0.00 | 0.10 | 0.00 | 67 | 1012.3 |
| 20260503070804 | 8 | 5 | 0.0 | 0.0 | 0.00 | 0.10 | 0.00 | 67 | 1012.3 |
| 20260503070259 | 8 | 5 | 0.0 | 0.0 | 0.00 | 0.10 | 0.00 | 67 | 1012.3 |
| 20260503054632 | 11 | 340 | 0.0 | 1.6 | 0.00 | 0.10 | 0.00 | 61 | 1011.6 |
| 20260503054626 | 11 | 355 | 0.0 | 1.6 | 0.00 | 0.10 | 0.00 | 61 | 1011.7 |
| 20260503053617 | 11 | 9 | 0.0 | 0.0 | 0.00 | 0.10 | 0.00 | 61 | 1011.8 |
| 20260503053111 | 11 | 9 | 0.0 | 0.0 | 0.00 | 0.10 | 0.00 | 61 | 1012.0 |
| 20260503052604 | 11 | 9 | 0.0 | 1.6 | 0.00 | 0.10 | 0.00 | 61 | 1012.0 |
| 20260503052059 | 11 | 10 | 0.0 | 1.6 | 0.00 | 0.10 | 0.00 | 61 | 1012.0 |
| 20260503051553 | 11 | 0 | 0.0 | 3.2 | 0.00 | 0.10 | 0.00 | 61 | 1012.1 |
| 20260503051047 | 11 | 0 | 0.0 | 3.2 | 0.00 | 0.10 | 0.00 | 60 | 1012.1 |
| 20260503050541 | 11 | 333 | 1.6 | 6.4 | 0.00 | 0.10 | 0.00 | 60 | 1011.9 |
| 20260503050034 | 12 | 347 | 0.0 | 6.4 | 0.00 | 0.10 | 0.00 | 61 | 1011.8 |
| 20260503045529 | 12 | 355 | 0.0 | 3.2 | 0.00 | 0.10 | 0.00 | 61 | 1011.9 |
| 20260503045022 | 12 | 19 | 0.0 | 3.2 | 0.00 | 0.10 | 0.00 | 61 | 1012.0 |
| 20260503044517 | 12 | 336 | 0.0 | 3.2 | 0.00 | 0.10 | 0.00 | 62 | 1012.0 |
| 20260503044010 | 12 | 10 | 0.0 | 0.0 | 0.00 | 0.10 | 0.00 | 61 | 1011.9 |
| 20260503043507 | 12 | 23 | 0.0 | 0.0 | 0.00 | 0.10 | 0.00 | 61 | 1012.0 |
| 20260503043501 | 12 | 339 | 0.0 | 3.2 | 0.00 | 0.10 | 0.00 | 61 | 1012.0 |
| 20260503042452 | 12 | 17 | 0.0 | 3.2 | 0.00 | 0.10 | 0.00 | 61 | 1011.9 |
| 20260503041947 | 12 | 5 | 0.0 | 1.6 | 0.00 | 0.10 | 0.00 | 61 | 1011.9 |
| 20260503041441 | 12 | 46 | 1.6 | 8.0 | 0.00 | 0.10 | 0.00 | 61 | 1012.1 |
| 20260503040935 | 12 | 46 | 1.6 | 8.0 | 0.00 | 0.10 | 0.00 | 61 | 1012.0 |
| 20260503040428 | 12 | 17 | 1.6 | 4.8 | 0.00 | 0.10 | 0.00 | 60 | 1011.9 |
| 20260503035923 | 12 | 53 | 0.0 | 4.8 | 0.00 | 0.10 | 0.10 | 60 | 1012.1 |
| 20260503035416 | 12 | 324 | 0.0 | 4.8 | 0.00 | 0.10 | 0.10 | 60 | 1012.1 |
| 20260503034911 | 12 | 344 | 0.0 | 3.2 | 0.00 | 0.10 | 0.10 | 59 | 1012.1 |
| 20260503034404 | 12 | 327 | 0.0 | 6.4 | 0.00 | 0.10 | 0.10 | 59 | 1011.9 |
| 20260503033859 | 12 | 340 | 0.0 | 6.4 | 0.00 | 0.10 | 0.10 | 59 | 1011.9 |
| 20260503033623 | 12 | 355 | 0.0 | 3.2 | 0.00 | 0.10 | 0.10 | 59 | 1011.9 |
| 20260503032847 | 12 | 355 | 0.0 | 3.2 | 0.00 | 0.10 | 0.10 | 59 | 1011.8 |
| 20260503032611 | 13 | 337 | 0.0 | 6.4 | 0.00 | 0.10 | 0.10 | 59 | 1011.8 |
| 20260503031838 | 13 | 0 | 1.6 | 6.4 | 0.00 | 0.10 | 0.10 | 58 | 1011.7 |
| 20260503031831 | 13 | 326 | 3.2 | 8.0 | 0.00 | 0.10 | 0.10 | 58 | 1011.6 |
| 20260503030823 | 13 | 355 | 1.6 | 8.0 | 0.00 | 0.10 | 0.10 | 58 | 1011.7 |
| 20260503030317 | 13 | 355 | 1.6 | 4.8 | 0.00 | 0.10 | 0.10 | 57 | 1011.8 |
| 20260503025811 | 13 | 340 | 1.6 | 6.4 | 0.00 | 0.10 | 0.10 | 57 | 1011.8 |
| 20260503025305 | 13 | 322 | 1.6 | 6.4 | 0.00 | 0.10 | 0.10 | 57 | 1011.9 |
| 20260503025029 | 13 | 329 | 0.0 | 6.4 | 0.00 | 0.10 | 0.10 | 58 | 1011.9 |
| 20260503024253 | 13 | 27 | 1.6 | 4.8 | 0.00 | 0.10 | 0.10 | 58 | 1012.0 |
| 20260503023747 | 13 | 332 | 3.2 | 8.0 | 0.00 | 0.10 | 0.10 | 57 | 1011.9 |
| 20260503023511 | 13 | 348 | 3.2 | 8.0 | 0.00 | 0.10 | 0.10 | 57 | 1012.0 |
| 20260503022735 | 13 | 326 | 1.6 | 8.0 | 0.00 | 0.10 | 0.10 | 57 | 1011.9 |
| 20260503022228 | 13 | 10 | 3.2 | 6.4 | 0.00 | 0.10 | 0.10 | 56 | 1012.0 |
| 20260503021722 | 13 | 325 | 3.2 | 8.0 | 0.00 | 0.10 | 0.10 | 56 | 1011.9 |
| 20260503021217 | 13 | 355 | 4.8 | 8.0 | 0.00 | 0.10 | 0.10 | 56 | 1012.0 |
| 20260503020710 | 13 | 340 | 4.8 | 12.9 | 0.00 | 0.10 | 0.10 | 56 | 1011.9 |
| 20260503020206 | 13 | 325 | 4.8 | 12.9 | 0.00 | 0.10 | 0.10 | 56 | 1011.9 |
| 20260503020200 | 13 | 355 | 3.2 | 17.7 | 0.00 | 0.10 | 0.10 | 56 | 1011.9 |
| 20260503015154 | 13 | 339 | 3.2 | 14.5 | 0.00 | 0.10 | 0.10 | 56 | 1011.9 |
| 20260503014654 | 13 | 314 | 4.8 | 14.5 | 0.00 | 0.10 | 0.10 | 56 | 1011.9 |
| 20260503014155 | 13 | 336 | 4.8 | 12.9 | 0.00 | 0.10 | 0.10 | 55 | 1011.9 |
| 20260503013653 | 13 | 329 | 3.2 | 12.9 | 0.00 | 0.10 | 0.10 | 55 | 1011.7 |
| 20260503013424 | 13 | 311 | 3.2 | 8.0 | 0.00 | 0.10 | 0.10 | 55 | 1011.6 |
| 20260503012654 | 13 | 338 | 3.2 | 9.7 | 0.00 | 0.10 | 0.10 | 55 | 1011.4 |
| 20260503012153 | 13 | 355 | 3.2 | 9.7 | 0.00 | 0.10 | 0.10 | 56 | 1011.5 |
| 20260503011652 | 13 | 343 | 4.8 | 11.3 | 0.00 | 0.10 | 0.10 | 55 | 1011.4 |
| 20260503011153 | 13 | 9 | 3.2 | 11.3 | 0.00 | 0.10 | 0.10 | 55 | 1011.6 |
| 20260503010654 | 13 | 333 | 3.2 | 8.0 | 0.00 | 0.10 | 0.10 | 55 | 1011.7 |
| 20260503010423 | 13 | 32 | 4.8 | 16.1 | 0.00 | 0.10 | 0.10 | 55 | 1011.6 |
| 20260503005653 | 13 | 350 | 4.8 | 16.1 | 0.00 | 0.10 | 0.10 | 55 | 1011.6 |
| 20260503005153 | 13 | 355 | 4.8 | 14.5 | 0.00 | 0.10 | 0.10 | 54 | 1011.5 |
| 20260503004152 | 13 | 284 | 4.8 | 17.7 | 0.00 | 0.10 | 0.10 | 54 | 1011.3 |
| 20260503003652 | 13 | 344 | 4.8 | 14.5 | 0.00 | 0.10 | 0.10 | 55 | 1011.3 |
| 20260503003151 | 13 | 355 | 4.8 | 16.1 | 0.00 | 0.10 | 0.10 | 55 | 1011.4 |
| 20260503002651 | 13 | 0 | 4.8 | 16.1 | 0.00 | 0.10 | 0.10 | 55 | 1011.3 |
| 20260503002144 | 13 | 5 | 4.8 | 14.5 | 0.00 | 0.10 | 0.10 | 56 | 1011.2 |
| 20260503001639 | 13 | 346 | 4.8 | 9.7 | 0.00 | 0.10 | 0.10 | 55 | 1011.1 |
| 20260503001404 | 13 | 5 | 6.4 | 16.1 | 0.00 | 0.10 | 0.10 | 55 | 1011.1 |
| 20260503000627 | 13 | 37 | 6.4 | 16.1 | 0.00 | 0.10 | 0.10 | 55 | 1011.0 |